Winfield, KS

5:42 AM CDT on August 23, 2017 (GMT -0500)
Strother

Weather History for KWLD - July, 2013

Change the Weather History Date:

Thursday, July 11, 2013

  Actual Average Record
Temperature  
Mean Temperature 86 °F -  
Max Temperature 95 °F 90 °F 105 °F (2011)
Min Temperature 79 °F 68 °F 64 °F (1996)
Cooling Degree Days 21    
Growing Degree Days 36 (Base 50)    
Moisture  
Dew Point 69 °F    
Average Humidity 58    
Maximum Humidity 81    
Minimum Humidity 44    
Precipitation  
Precipitation 0.00 in - - ()
Sea Level Pressure  
Sea Level Pressure 29.96 in    
Wind  
Wind Speed 9 mph (East)    
Max Wind Speed 18 mph    
Max Gust Speed 25 mph    
Visibility 10 miles    
Events Thunderstorm    
Averages and records for this station are not official NWS values.
T = Trace of Precipitation, MM = Missing Value Source: NWS Daily Summary

Daily Weather History Graph

Daily Weather History Graph

Search for Another Location

Airport or City:

Trip Planner

Search our weather history database for the weather conditions in past years. The results will help you decide how hot, cold, wet, or windy it might be!

Date:

Astronomy

Jul. 11, 2013 Rise Set
Actual Time 6:17 AM CDT 8:49 PM CDT
Civil Twilight 5:47 AM CDT 9:20 PM CDT
Nautical Twilight 5:09 AM CDT 9:57 PM CDT
Astronomical Twilight 4:27 AM CDT 10:39 PM CDT
Moon 9:31 AM CDT (7/11) 10:37 PM CDT (7/11)
Length of Visible Light 15h 32m
Length of Day
14h 32m
Waxing Crescent, 11% of the Moon is Illuminated
Jul 11
Waxing Crescent
Jul 15
First Quarter
Jul 22
Full
Jul 29
Last Quarter
Aug 6
New

Hourly Weather History & Observations

Time (CDT) Temp. Heat Index Dew Point Humidity Pressure Visibility Wind Dir Wind Speed Gust Speed Precip Events Conditions
12:54 AM 84.0 °F 90.2 °F 73.0 °F 69% 29.97 in 10.0 mi East 10.4 mph 18.4 mph N/A   Clear
1:54 AM 82.9 °F 87.5 °F 71.1 °F 67% 29.97 in 10.0 mi East 9.2 mph - N/A   Clear
2:54 AM 82.0 °F 85.5 °F 69.1 °F 65% 29.96 in 10.0 mi East 10.4 mph - N/A   Clear
3:54 AM 82.0 °F 84.9 °F 68.0 °F 62% 29.95 in 10.0 mi East 10.4 mph - N/A   Clear
4:54 AM 81.0 °F 83.8 °F 68.0 °F 65% 29.95 in 10.0 mi East 10.4 mph - N/A   Mostly Cloudy
5:54 AM 80.1 °F 83.2 °F 70.0 °F 71% 29.95 in 10.0 mi ESE 8.1 mph - N/A   Scattered Clouds
6:54 AM 79.0 °F - 70.0 °F 74% 29.98 in 10.0 mi SSE 4.6 mph - N/A   Overcast
7:54 AM 79.0 °F - 72.0 °F 79% 29.99 in 10.0 mi East 5.8 mph - N/A   Overcast
8:54 AM 80.1 °F 84.2 °F 73.0 °F 79% 29.98 in 10.0 mi East 4.6 mph - 0.00 in   Clear
9:54 AM 80.1 °F 84.5 °F 73.9 °F 81% 29.98 in 10.0 mi ESE 5.8 mph - N/A   Clear
10:54 AM 84.9 °F 90.1 °F 71.1 °F 63% 29.99 in 10.0 mi SE 8.1 mph - N/A   Clear
11:54 AM 88.0 °F 91.4 °F 68.0 °F 51% 30.02 in 10.0 mi North 8.1 mph - N/A   Partly Cloudy
12:13 PM 89.6 °F 93.4 °F 68.0 °F 49% 30.06 in 10.0 mi Calm Calm - N/A Thunderstorm Partly Cloudy
12:28 PM 89.6 °F 96.2 °F 71.6 °F 55% 30.05 in 10.0 mi WNW 6.9 mph - N/A   Partly Cloudy
12:54 PM 91.0 °F 97.6 °F 71.1 °F 52% 30.00 in 10.0 mi NE 16.1 mph 25.3 mph N/A   Partly Cloudy
1:54 PM 88.0 °F 92.1 °F 69.1 °F 53% 29.96 in 10.0 mi ENE 18.4 mph 25.3 mph N/A   Clear
2:54 PM 93.0 °F 97.4 °F 68.0 °F 44% 29.95 in 10.0 mi East 16.1 mph 25.3 mph N/A   Clear
3:54 PM 93.0 °F 97.9 °F 69.1 °F 45% 29.94 in 10.0 mi East 15.0 mph 19.6 mph N/A   Clear
4:54 PM 93.0 °F 99.0 °F 70.0 °F 47% 29.91 in 10.0 mi East 12.7 mph - N/A   Clear
5:54 PM 93.9 °F 99.1 °F 69.1 °F 44% 29.89 in 10.0 mi ESE 10.4 mph - N/A   Clear
6:54 PM 93.9 °F 99.1 °F 69.1 °F 44% 29.88 in 10.0 mi ESE 11.5 mph - N/A   Clear
7:54 PM 91.0 °F 94.3 °F 66.9 °F 45% 29.90 in 10.0 mi East 9.2 mph - N/A   Clear
8:54 PM 88.0 °F 90.3 °F 66.0 °F 48% 29.91 in 10.0 mi East 9.2 mph - N/A   Clear
9:54 PM 86.0 °F 87.6 °F 64.9 °F 49% 29.92 in 10.0 mi East 11.5 mph - N/A   Clear
10:54 PM 84.0 °F 84.9 °F 63.0 °F 49% 29.93 in 10.0 mi ESE 8.1 mph - N/A   Clear
11:54 PM 82.9 °F 84.0 °F 63.0 °F 51% 29.94 in 10.0 mi ESE 6.9 mph - N/A   Clear